C/2017 M5 ( TOTAS )

Japanese version
Home page
Updated on November 7, 2017

---------------------------------------------------------------------

* Profile

Discovery Date June 23, 2017
Magnitude 18.6 mag
Discoverer Teide Observatory Tenerife Asteroid Survey (TOTAS)

* Pictures

* Orbital Elements

Epoch 2018 June 11.0 TT = JDT 2458280.5
T 2018 June 2.87088 TT                                  MPCW
q   5.9897042            (2000.0)            P               Q
z  -0.0006076      Peri.   92.64893     +0.60557478     +0.77914557
 +/-0.0000813      Node   216.26398     -0.79443314     +0.58003186
e   1.0036395      Incl.   15.88496     -0.04642393     +0.23768723
From 103 observations 2017 June 23-Sept. 25, mean residual 0".5.

* Magnitudes Graph

        m1 = 6.5 + 5 log d + 10.0 log r

---------------------------------------------------------------------

The orbital elements are published on M.P.E.C. 2017-T14.
The magnitudes graphs are made with Comet for Windows.

---------------------------------------------------------------------

Copyright(C) Seiichi Yoshida (comet@aerith.net). All rights reserved.